TimeMST,TemperatureF,Dew PointF,Humidity,Sea Level PressureIn,VisibilityMPH,Wind Direction,Wind SpeedMPH,Gust SpeedMPH,PrecipitationIn,Events,Conditions,WindDirDegrees,DateUTC
12:02 AM,23.0,14.0,68,30.37,10.0,SW,16.1,28.8,N/A,,Clear,220,2012-11-29 07:02:00
12:22 AM,23.0,14.0,68,30.36,10.0,SW,18.4,24.2,N/A,,Clear,220,2012-11-29 07:22:00
12:42 AM,23.0,14.0,68,30.36,10.0,SW,18.4,27.6,N/A,,Clear,220,2012-11-29 07:42:00
1:02 AM,23.0,14.0,68,30.36,10.0,SW,19.6,26.5,N/A,,Clear,230,2012-11-29 08:02:00
1:22 AM,23.0,14.0,68,30.34,10.0,SW,17.3,26.5,N/A,,Clear,220,2012-11-29 08:22:00
1:42 AM,23.0,14.0,68,30.34,10.0,SW,19.6,25.3,N/A,,Clear,220,2012-11-29 08:42:00
2:02 AM,23.0,14.0,68,30.33,10.0,SW,21.9,28.8,N/A,,Clear,220,2012-11-29 09:02:00
2:22 AM,23.0,15.8,74,30.34,10.0,SW,19.6,28.8,N/A,,Clear,220,2012-11-29 09:22:00
2:42 AM,23.0,17.6,80,30.33,10.0,SW,24.2,29.9,N/A,,Clear,220,2012-11-29 09:42:00
3:02 AM,23.0,17.6,80,30.33,10.0,SW,21.9,29.9,N/A,,Clear,220,2012-11-29 10:02:00
3:22 AM,23.0,17.6,80,30.33,10.0,SW,23.0,28.8,N/A,,Clear,220,2012-11-29 10:22:00
3:42 AM,23.0,17.6,80,30.33,10.0,SW,19.6,25.3,N/A,,Clear,230,2012-11-29 10:42:00
4:02 AM,23.0,17.6,80,30.33,10.0,SW,20.7,27.6,N/A,,Clear,230,2012-11-29 11:02:00
4:22 AM,23.0,17.6,80,30.32,10.0,SW,18.4,25.3,N/A,,Clear,230,2012-11-29 11:22:00
4:42 AM,23.0,15.8,74,30.31,10.0,SW,21.9,28.8,N/A,,Clear,230,2012-11-29 11:42:00
5:02 AM,23.0,17.6,80,30.30,10.0,SW,18.4,28.8,N/A,,Clear,220,2012-11-29 12:02:00
5:22 AM,23.0,15.8,74,30.29,10.0,SW,18.4,24.2,N/A,,Clear,220,2012-11-29 12:22:00
5:42 AM,23.0,15.8,74,30.30,10.0,SW,24.2,29.9,N/A,,Clear,230,2012-11-29 12:42:00
6:02 AM,23.0,17.6,80,30.31,10.0,SW,24.2,31.1,N/A,,Clear,230,2012-11-29 13:02:00
6:22 AM,23.0,15.8,74,30.31,10.0,SW,21.9,25.3,N/A,,Clear,230,2012-11-29 13:22:00
6:42 AM,23.0,15.8,74,30.31,10.0,SW,24.2,27.6,N/A,,Clear,230,2012-11-29 13:42:00
7:02 AM,21.2,15.8,80,30.31,10.0,SW,19.6,25.3,N/A,,Clear,230,2012-11-29 14:02:00
7:22 AM,21.2,15.8,80,30.32,10.0,SW,18.4,21.9,N/A,,Clear,220,2012-11-29 14:22:00
7:42 AM,23.0,15.8,74,30.32,10.0,SW,15.0,24.2,N/A,,Clear,220,2012-11-29 14:42:00
8:02 AM,23.0,15.8,74,30.33,10.0,SSW,16.1,19.6,N/A,,Clear,210,2012-11-29 15:02:00
8:22 AM,24.8,17.6,74,30.33,10.0,SSW,11.5,21.9,N/A,,Clear,210,2012-11-29 15:22:00
8:42 AM,24.8,15.8,69,30.33,10.0,SSW,12.7,21.9,N/A,,Clear,210,2012-11-29 15:42:00
9:02 AM,26.6,17.6,69,30.33,10.0,SSW,16.1,21.9,N/A,,Clear,200,2012-11-29 16:02:00
9:22 AM,26.6,17.6,69,30.34,10.0,SSW,13.8,23.0,N/A,,Clear,200,2012-11-29 16:22:00
9:42 AM,28.4,17.6,64,30.34,10.0,SSW,11.5,23.0,N/A,,Clear,210,2012-11-29 16:42:00
10:02 AM,28.4,17.6,64,30.34,10.0,SSW,16.1,24.2,N/A,,Clear,210,2012-11-29 17:02:00
10:22 AM,28.4,17.6,64,30.34,10.0,SW,13.8,23.0,N/A,,Clear,220,2012-11-29 17:22:00
11:02 AM,28.4,17.6,64,30.34,10.0,SSW,11.5,20.7,N/A,,Clear,210,2012-11-29 18:02:00
11:22 AM,30.2,17.6,60,30.34,10.0,SSW,12.7,23.0,N/A,,Clear,210,2012-11-29 18:22:00
11:42 AM,30.2,17.6,60,30.33,10.0,SSW,11.5,23.0,N/A,,Clear,210,2012-11-29 18:42:00
12:02 PM,30.2,17.6,60,30.33,10.0,SW,16.1,24.2,N/A,,Clear,220,2012-11-29 19:02:00
12:22 PM,30.2,17.6,60,30.32,10.0,SSW,5.8,24.2,N/A,,Clear,210,2012-11-29 19:22:00
12:42 PM,30.2,17.6,60,30.32,10.0,SSW,12.7,24.2,N/A,,Clear,210,2012-11-29 19:42:00
1:02 PM,30.2,17.6,60,30.32,10.0,SSW,11.5,23.0,N/A,,Clear,210,2012-11-29 20:02:00
1:22 PM,30.2,17.6,60,30.31,10.0,SSW,15.0,25.3,N/A,,Clear,210,2012-11-29 20:22:00
1:42 PM,30.2,17.6,60,30.31,10.0,SW,20.7,27.6,N/A,,Clear,220,2012-11-29 20:42:00
2:02 PM,30.2,17.6,60,30.31,10.0,SSW,19.6,27.6,N/A,,Clear,210,2012-11-29 21:02:00
2:22 PM,30.2,17.6,60,30.31,10.0,SW,17.3,28.8,N/A,,Clear,220,2012-11-29 21:22:00
2:42 PM,30.2,17.6,60,30.32,10.0,SW,17.3,25.3,N/A,,Clear,220,2012-11-29 21:42:00
3:02 PM,30.2,17.6,60,30.32,10.0,SW,21.9,28.8,N/A,,Clear,220,2012-11-29 22:02:00
3:22 PM,30.2,17.6,60,30.32,10.0,SW,17.3,28.8,N/A,,Clear,220,2012-11-29 22:22:00
3:42 PM,30.2,17.6,60,30.32,10.0,SSW,19.6,27.6,N/A,,Clear,210,2012-11-29 22:42:00
4:02 PM,28.4,17.6,64,30.33,10.0,SW,20.7,26.5,N/A,,Clear,220,2012-11-29 23:02:00
4:22 PM,28.4,17.6,64,30.33,10.0,SW,17.3,24.2,N/A,,Clear,220,2012-11-29 23:22:00
4:42 PM,26.6,17.6,69,30.34,10.0,SW,18.4,25.3,N/A,,Clear,220,2012-11-29 23:42:00
5:02 PM,24.8,17.6,74,30.34,10.0,SW,16.1,21.9,N/A,,Clear,220,2012-11-30 00:02:00
5:22 PM,24.8,17.6,74,30.34,10.0,SW,21.9,26.5,N/A,,Clear,230,2012-11-30 00:22:00
5:42 PM,23.0,17.6,80,30.34,10.0,SSW,17.3,26.5,N/A,,Clear,210,2012-11-30 00:42:00
6:02 PM,23.0,19.4,86,30.34,10.0,SW,18.4,27.6,N/A,,Clear,220,2012-11-30 01:02:00
6:22 PM,23.0,19.4,86,30.34,10.0,SW,17.3,28.8,N/A,,Clear,220,2012-11-30 01:22:00
6:42 PM,23.0,19.4,86,30.34,10.0,SW,19.6,26.5,N/A,,Clear,220,2012-11-30 01:42:00
7:02 PM,21.2,19.4,93,30.34,10.0,SW,16.1,21.9,N/A,,Clear,220,2012-11-30 02:02:00
7:22 PM,21.2,19.4,93,30.34,10.0,SW,16.1,23.0,N/A,,Clear,220,2012-11-30 02:22:00
7:42 PM,21.2,19.4,93,30.34,10.0,SW,13.8,23.0,N/A,,Clear,220,2012-11-30 02:42:00
8:02 PM,21.2,19.4,93,30.34,10.0,SW,17.3,23.0,N/A,,Clear,220,2012-11-30 03:02:00
8:22 PM,21.2,19.4,93,30.34,10.0,SW,15.0,18.4,N/A,,Clear,220,2012-11-30 03:22:00
8:42 PM,21.2,19.4,93,30.33,10.0,SW,18.4,23.0,N/A,,Clear,220,2012-11-30 03:42:00
9:02 PM,21.2,19.4,93,30.34,10.0,SW,15.0,18.4,N/A,,Clear,220,2012-11-30 04:02:00
9:22 PM,21.2,19.4,93,30.33,10.0,SW,15.0,18.4,N/A,,Clear,220,2012-11-30 04:22:00
9:42 PM,21.2,19.4,93,30.33,10.0,SW,16.1,20.7,N/A,,Clear,220,2012-11-30 04:42:00
10:02 PM,21.2,19.4,93,30.33,10.0,SW,19.6,26.5,N/A,,Clear,220,2012-11-30 05:02:00
10:22 PM,21.2,19.4,93,30.34,10.0,SW,21.9,28.8,N/A,,Mostly Cloudy,220,2012-11-30 05:22:00
10:42 PM,21.2,19.4,93,30.34,10.0,SW,21.9,28.8,N/A,,Mostly Cloudy,220,2012-11-30 05:42:00
11:02 PM,21.2,19.4,93,30.34,10.0,SW,18.4,24.2,N/A,,Mostly Cloudy,220,2012-11-30 06:02:00
11:22 PM,21.2,19.4,93,30.35,10.0,SW,16.1,23.0,N/A,,Scattered Clouds,220,2012-11-30 06:22:00
11:42 PM,21.2,19.4,93,30.34,10.0,SW,16.1,23.0,N/A,,Clear,220,2012-11-30 06:42:00